Location: Peebles
(55.6412°N, 3.1714°W)
Time: 08:23:08
(UTC+00:00)

NOSS 3-3 (A) - Visible Passes

Search period start: 29 January 2022 00:00
Search period end: 08 February 2022 00:00
Orbit: 787 x 1425 km, 63.4° (Epoch: 14 January)

Date Brightness Start Highest point End Pass type
(mag) Time Alt. Az. Time Alt. Az. Time Alt. Az.
29 Jan 6.0 06:26:01 10° S 06:30:55 29° ESE 06:36:25 10° ENE visible
30 Jan 6.5 05:42:35 10° SSE 05:46:36 20° ESE 05:51:00 10° ENE visible
31 Jan 6.7 05:00:07 10° SE 05:02:26 12° ESE 05:04:51 10° E visible
31 Jan 4.9 06:46:01 10° SSW 06:51:37 52° SE 06:58:07 10° NE visible
01 Feb 5.5 06:01:52 10° S 06:07:06 37° ESE 06:13:04 10° ENE visible
02 Feb 6.0 05:18:06 10° SSE 05:22:43 25° ESE 05:27:50 10° ENE visible
02 Feb 4.1 07:06:46 10° SW 07:12:41 85° SE 07:19:37 10° NE visible
03 Feb 6.4 04:34:57 10° SE 04:38:28 17° ESE 04:42:15 10° ENE visible
03 Feb 4.4 06:22:11 10° SSW 06:27:56 64° SE 06:34:40 10° NE visible
04 Feb 4.9 05:37:51 10° SSW 05:43:20 45° SE 05:49:39 10° NE visible
05 Feb 5.5 04:53:51 10° S 04:58:52 32° ESE 05:04:32 10° ENE visible
05 Feb 4.0 06:43:10 10° SW 06:49:07 83° NW 06:56:09 10° NE visible
06 Feb 6.0 04:10:50 12° SSE 04:14:32 21° ESE 04:19:12 10° ENE visible
06 Feb 4.1 05:58:27 10° SW 06:04:18 77° SE 06:11:11 10° NE visible
07 Feb 6.3 03:28:00 11° SE 03:30:20 14° ESE 03:33:18 10° ENE visible
07 Feb 4.5 05:15:28 19° SSW 05:19:37 56° SE 05:26:12 10° NE visible
07 Feb 4.2 07:04:34 10° WSW 07:10:36 60° NNW 07:17:42 10° NE visible
